Regional Weather Roundup
Issued by NWS State College, PA

Home | Current Version | Previous Version | Text Only | Print | Product List | Glossary On
Versions: 1 2 3 4 5 6 7 8 9 10 11 12 13 14 15 16 17 18 19 20 21 22 23 24 25 26 27 28 29 30 31 32 33 34 35 36 37 38 39 40 41 42 43 44 45 46 47 48 49 50
000
ASUS41 KCTP 251610
RWRCTP

REGIONAL WEATHER ROUNDUP
NATIONAL WEATHER SERVICE STATE COLLEGE PA
1200 PM EDT SAT OCT 25 2014

Note: "fair" indicates few or no clouds below 12,000 feet with no
significant weather and/or obstructions to visibility.

* = STATION THAT DOES NOT REPORT PRECIPITATION /E.G. RAIN...SNOW...ETC/
    THUNDER OR FOG.

PAZ002>004-007>009-013>016-020>023-029>032-251700-
WESTERN PENNSYLVANIA

CITY           SKY/WX    TMP DP  RH WIND       PRES   REMARKS
ERIE           PTSUNNY   62  47  57 SW14G24   29.77F
MEADVILLE      CLOUDY    57  47  69 SW9       29.82F
FRANKLIN*      CLOUDY    57  46  67 SW10G16   29.86F
NEW CASTLE       N/A     60  50  69 SW9G20    29.88F
BEAVER COUNTY  MOSUNNY   59  48  67 SW13G20   29.88F
BUTLER*        MOSUNNY   57  46  67 SW14      29.90F
PITTSBURGH INT MOSUNNY   58  48  69 SW15      29.89F
PITTSBURGH     PTSUNNY   59  45  59 SW15G23   29.90F
INDIANA*       CLOUDY    57  46  67 W14       29.92F
LATROBE        PTSUNNY   55  46  71 SW17      29.92F
WASHINGTON CO* CLOUDY    57  46  67 SW9G16    29.94F
$$

PAZ004>006-010>012-017>019-024>028-033>037-041-042-045-046-049>053-251700-
CENTRAL PENNSYLVANIA

CITY           SKY/WX    TMP DP  RH WIND       PRES   REMARKS
BRADFORD       PTSUNNY   55  45  68 SW12G20   29.82F
DUBOIS         CLOUDY    56  47  71 W12G23    29.86S
CLEARFIELD     PTSUNNY   62  47  57 W10G20    29.85F
JOHNSTOWN      CLOUDY    55  45  68 W14G23    29.89F
ALTOONA        SUNNY     62  46  55 W16G26    29.87F
STATE COLLEGE  MOSUNNY   61  45  55 W17G23    29.85F
WILLIAMSPORT   SUNNY     60  42  51 W8        29.82F
SELINSGROVE    SUNNY     62  45  53 VRB3      29.84F
FT INDIANTOWN  SUNNY     64  44  46 W8        29.85F
CAPITAL CITY   SUNNY     65  43  44 W10       29.87F
HARRISBURG     MOSUNNY   65  44  46 NW9       29.86F
YORK           SUNNY     65  41  41 SW10      29.87F
$$

PAZ038>040-043-044-047-048-054-055-060>062-067>071-251700-
EASTERN PENNSYLVANIA

CITY           SKY/WX    TMP DP  RH WIND       PRES   REMARKS
SCRANTON       CLOUDY    57  41  55 W5        29.82F
MOUNT POCONO   MOSUNNY   57  39  51 NW16      29.82F
ALLENTOWN      SUNNY     65  42  43 W12       29.83F
QUAKERTOWN*    SUNNY     64  43  45 NW10G17   29.85F
READING        SUNNY     65  42  43 W12       29.84F
LANCASTER      SUNNY     63  42  46 W13       29.87F
COATESVILLE    SUNNY     63  43  48 W9        29.88F
POTTSTOWN      SUNNY     63  42  46 W8        29.87F
BLUE BELL      SUNNY     64  45  48 W6        29.85F
DOYLESTOWN     SUNNY     62  43  49 SW7       29.83F
WILLOW GROVE   NOT AVBL
NORTH PHILA    SUNNY     66  41  40 W13       29.87F
PHILADELPHIA   MOSUNNY   64  42  44 W9G18     29.87F
$$



USA.gov is the U.S. government's official web portal to all federal, state and local government web resources and services.